RH
15 15 16 16 16 17 18 19 19 18 18 18 18 19 17 16 16 16 15 15 15 14 14 13 13 13 13 13 11 9 9 10 11 13 13 13 12 12 11 11 10 11 11 12 12 13 14 13 15 16 19 23 27 32 26 21 26 31 37 41 41 42 40 36 36 37 37 36 38 40 41 48 50 48 46 38 38 41 39 42 50 54 58 59 56 59 58 58
15 16 16 17 17 16 17 18 19 19 18 18 19 19 19 19 17 16 16 15 15 15 15 14 14 14 13 13 11 9 10 10 12 14 13 12 11 10 10 10 10 12 11 12 13 14 17 16 16 19 24 26 28 31 24 21 28 33 39 42 42 42 39 37 40 39 38 38 40 43 44 47 47 46 47 46 44 42 42 45 49 55 59 58 52 52 53 56
16 16 16 17 18 17 17 17 18 19 19 19 19 20 20 20 19 17 16 16 16 15 15 15 15 15 13 13 12 11 11 13 14 12 11 10 10 9 9 10 11 12 11 12 13 15 19 19 18 22 28 29 28 30 28 24 31 38 39 42 43 40 38 37 39 39 39 39 40 44 46 44 43 44 47 48 45 44 47 47 50 58 60 56 52 50 50 55
16 17 17 17 18 18 18 17 18 19 19 19 19 20 20 20 20 19 18 17 17 16 16 15 15 15 14 14 15 15 16 18 15 11 9 9 10 10 10 11 11 11 12 12 12 14 17 17 18 23 31 33 29 33 35 31 34 39 37 38 38 36 38 37 36 37 37 38 39 41 43 42 42 45 47 44 45 48 50 47 51 60 59 57 54 49 49 53
17 17 17 17 18 18 19 18 18 18 19 19 19 20 20 20 20 20 20 18 17 17 16 16 15 16 15 16 16 17 20 21 15 10 10 10 10 11 11 11 11 11 11 11 12 15 15 16 21 25 32 33 30 35 38 35 34 36 35 34 33 34 38 35 35 35 31 34 38 41 44 43 44 47 47 44 47 52 51 48 51 55 54 55 53 50 51 54
17 17 17 17 18 18 19 19 18 18 19 19 19 20 20 20 20 20 21 20 19 17 17 16 16 16 15 16 15 15 19 20 13 11 10 10 11 11 11 11 11 11 11 12 12 15 15 18 23 28 34 32 32 37 33 32 31 34 37 32 30 32 34 33 34 33 29 35 39 41 40 39 44 47 48 49 50 52 51 47 49 51 51 52 53 52 53 56
17 17 17 18 18 18 18 19 19 18 18 19 20 21 21 21 20 20 20 21 20 18 17 17 17 16 15 16 16 17 21 20 12 11 10 10 11 10 11 11 11 11 12 13 13 15 17 19 24 30 38 34 32 36 30 26 26 30 34 31 31 31 30 29 27 27 27 33 34 35 36 38 46 47 49 55 53 51 50 48 50 52 53 53 53 54 54 56
17 18 18 18 18 19 18 18 19 19 18 19 20 21 22 22 21 20 20 21 22 20 18 18 18 17 16 17 20 23 25 21 14 11 10 11 11 10 11 10 11 12 12 14 15 17 18 19 24 28 36 34 29 30 25 23 25 29 32 30 29 28 30 27 24 25 27 32 33 33 38 40 44 44 48 55 54 50 48 49 54 56 58 56 52 52 54 54
17 17 18 18 18 19 19 19 19 19 18 18 19 19 20 22 23 22 20 21 22 22 19 18 19 17 17 20 24 27 23 19 16 13 11 11 12 10 11 11 11 12 13 14 15 18 19 17 19 22 28 28 22 23 21 22 27 30 29 26 26 28 29 26 27 31 31 36 36 34 40 43 44 45 48 55 56 52 48 52 55 56 61 58 52 50 52 54
16 17 18 19 19 19 20 19 19 19 19 18 18 18 18 19 21 23 22 21 21 22 21 19 19 18 20 22 26 27 22 19 19 16 12 11 11 11 11 11 12 13 15 15 15 17 19 18 16 16 21 21 17 19 18 19 23 23 22 22 22 24 24 24 30 32 29 32 32 32 40 46 48 47 50 54 55 51 49 54 53 52 58 57 54 53 53 55
18 17 18 19 19 19 19 20 19 19 19 18 18 18 18 17 19 22 23 22 21 22 23 21 20 20 21 23 25 26 23 20 20 18 14 12 12 12 12 12 12 14 14 15 16 16 16 18 16 15 18 18 17 18 16 15 16 16 17 18 16 17 20 22 24 26 28 29 30 32 35 42 48 48 49 52 53 51 49 52 51 49 53 54 55 57 55 54
20 18 18 18 19 19 19 19 19 19 19 19 19 18 18 17 17 20 23 24 22 22 23 23 21 20 20 23 25 25 22 20 20 18 15 13 13 12 11 12 12 14 13 16 18 16 14 15 16 17 17 17 17 18 17 14 14 15 16 16 17 18 21 21 20 25 29 26 28 31 30 38 47 47 45 46 49 51 51 51 50 50 50 50 52 55 55 54
23 21 19 18 18 19 19 19 19 20 20 20 20 19 19 18 17 19 21 24 24 22 22 23 22 21 21 25 26 23 21 20 19 17 15 13 13 12 12 11 12 13 13 15 17 14 14 13 14 17 18 17 17 17 17 15 14 15 15 17 21 24 24 23 21 26 27 24 27 30 30 36 46 48 44 44 46 49 53 52 52 54 51 48 46 49 52 52
25 24 22 21 19 19 20 20 20 20 20 20 20 20 19 19 18 18 20 22 25 24 23 23 24 23 23 27 28 23 22 21 17 16 15 13 14 14 14 12 12 13 13 14 14 14 14 13 13 14 16 16 16 15 15 15 15 15 16 20 24 25 25 26 24 25 28 28 28 29 30 34 41 46 46 45 44 44 48 49 52 57 55 50 47 46 48 47
26 26 25 23 21 20 21 22 22 21 22 22 21 21 20 19 19 19 19 21 24 26 24 23 24 25 25 29 30 25 22 21 17 16 15 14 15 16 15 14 13 13 14 13 13 14 14 13 13 14 16 16 15 15 15 16 17 18 20 24 26 24 23 25 25 25 27 29 29 29 30 33 36 39 41 40 38 39 45 50 54 58 58 56 52 49 45 44
27 27 26 24 23 22 22 22 23 23 23 22 22 22 21 21 21 20 20 21 23 26 26 25 26 27 28 30 30 27 25 21 18 17 15 16 16 16 17 16 15 15 14 14 13 13 14 13 13 14 16 16 15 14 16 21 23 22 22 25 27 25 21 22 24 25 26 26 27 27 27 30 32 35 37 34 33 38 46 52 52 53 55 52 53 52 45 43
27 27 26 25 23 23 22 22 23 23 23 23 23 22 21 22 23 23 23 22 22 25 26 28 29 30 32 32 30 28 27 23 19 18 17 17 17 17 18 17 16 15 14 13 13 13 13 13 13 14 15 16 15 15 21 27 26 25 25 24 25 24 21 20 23 25 25 22 21 24 26 29 30 32 36 33 31 35 41 48 50 49 49 43 44 49 45 43
27 27 26 25 23 22 22 21 22 23 23 23 23 22 23 24 24 24 25 24 23 24 29 32 32 32 33 32 31 29 28 25 22 21 20 19 17 17 19 18 16 16 15 14 14 13 13 13 13 15 16 15 15 18 26 30 27 27 28 27 26 25 20 18 21 24 23 20 18 20 27 31 32 34 37 37 34 35 38 47 51 48 46 42 38 39 42 43
28 28 27 26 24 23 22 21 21 22 22 23 22 23 25 27 26 26 26 27 27 27 31 35 33 32 32 30 31 30 27 26 24 23 23 21 19 18 18 18 17 17 17 16 16 15 14 14 14 16 16 16 18 21 25 27 24 27 28 27 26 23 20 18 21 21 19 18 15 19 27 31 32 32 36 42 39 35 38 44 48 47 45 45 41 36 38 43
28 29 29 29 27 25 24 23 23 23 23 23 22 24 27 26 25 28 27 26 26 25 26 30 31 32 31 30 31 29 27 28 26 25 24 22 20 19 18 18 17 17 17 18 18 16 16 16 16 16 15 17 23 25 24 22 22 25 25 24 22 19 19 19 19 19 16 15 14 18 26 29 29 26 28 40 43 37 36 38 41 45 46 46 46 42 37 41
31 29 29 30 29 27 26 26 25 25 25 24 24 27 27 24 23 25 25 24 23 22 22 24 28 30 30 32 33 30 29 29 28 26 25 24 22 20 19 18 17 16 17 19 19 18 17 17 16 16 15 17 24 26 23 20 17 18 19 20 20 19 20 19 19 20 16 14 14 16 23 28 32 30 28 36 42 36 34 35 36 40 46 47 45 44 40 41
34 32 30 30 30 29 27 27 27 27 27 27 27 28 27 26 24 24 24 24 24 23 22 22 23 27 29 32 32 30 31 30 29 28 26 25 23 21 19 18 17 18 19 20 20 19 19 18 16 16 15 17 21 21 19 17 14 14 15 19 21 21 22 20 20 21 18 16 15 15 20 26 29 32 33 35 38 36 33 33 34 36 41 45 45 44 43 41
33 34 32 30 30 29 28 28 27 28 28 29 29 29 28 27 27 27 26 25 25 24 24 23 23 25 27 30 32 31 31 30 29 28 27 26 23 21 21 19 19 20 22 21 20 20 21 22 22 19 16 16 17 16 16 15 14 13 14 19 22 22 22 21 21 22 20 18 16 15 17 19 21 23 27 30 32 34 33 31 33 35 36 43 50 51 49 45
29 32 33 32 31 31 29 27 28 30 31 30 30 31 30 30 29 29 29 27 26 25 26 25 24 25 27 29 31 32 32 31 29 28 28 27 24 22 21 21 22 22 22 22 21 20 20 24 28 26 19 15 15 15 15 14 14 14 15 17 21 23 21 21 23 23 17 15 18 16 15 18 20 22 25 28 28 28 30 29 29 33 33 36 43 49 50 49
29 30 32 31 31 30 30 31 32 32 32 31 31 33 31 31 32 32 32 31 29 27 27 27 27 27 27 28 29 31 32 31 30 28 29 27 25 23 23 23 24 24 23 22 21 21 21 24 27 25 21 17 16 15 14 14 14 18 21 20 22 24 21 19 20 19 14 18 25 21 20 25 26 26 27 30 32 29 27 28 29 33 34 31 33 39 42 43
36 34 33 33 32 29 29 33 36 33 32 32 32 34 32 31 34 33 34 37 35 31 30 29 28 28 27 28 29 31 32 32 30 29 28 28 27 25 25 26 25 25 25 23 22 20 21 24 23 21 20 18 17 14 14 15 17 22 25 25 25 22 18 16 16 15 14 19 25 21 22 26 23 24 26 25 28 29 27 27 29 32 33 33 32 34 38 40
40 39 37 37 35 32 30 32 34 32 32 33 33 33 32 32 33 33 39 45 39 33 33 31 29 28 27 27 29 31 32 31 30 30 28 28 28 26 26 27 26 26 25 24 25 23 22 22 21 22 20 19 18 16 15 15 18 24 25 25 24 19 16 16 14 14 14 17 20 18 19 21 19 22 25 21 22 26 28 27 26 28 31 32 31 31 34 37
40 40 39 39 38 36 33 32 31 31 31 33 33 33 33 32 32 34 45 53 41 32 33 33 30 29 28 28 28 30 31 30 30 30 29 29 30 27 26 27 27 28 27 26 26 25 23 22 22 22 22 20 19 17 16 16 18 23 23 21 21 18 17 17 15 15 15 15 18 20 21 21 20 21 24 24 23 24 27 26 23 24 27 28 28 30 32 32
39 39 39 39 38 37 36 34 33 33 33 33 33 33 33 34 35 37 45 48 36 28 31 32 32 30 29 29 29 29 30 30 31 31 29 30 31 28 27 29 29 29 29 28 26 25 25 25 23 23 23 21 19 17 18 19 21 23 20 18 19 18 18 17 16 16 16 17 20 22 25 25 24 25 26 25 26 26 26 24 22 20 22 24 26 31 34 32
37 37 38 39 38 38 36 34 36 37 38 38 34 32 33 35 38 44 52 48 34 30 33 33 32 32 30 30 30 30 30 30 31 30 29 30 32 30 30 30 29 30 30 29 28 27 26 26 25 26 25 23 20 19 20 22 23 23 20 19 20 19 18 18 18 18 19 21 20 21 26 28 26 26 25 23 26 28 26 22 22 20 20 23 25 28 32 34
36 35 35 36 36 37 35 34 38 40 40 41 39 35 35 35 37 45 50 43 33 33 35 33 32 31 30 29 30 30 29 28 30 31 30 30 31 32 31 31 30 31 31 30 30 29 27 27 26 26 26 25 22 21 22 23 23 21 20 20 20 20 20 20 21 21 23 23 22 24 27 28 26 24 25 25 24 24 25 24 23 23 22 24 25 25 28 30
38 36 34 34 34 35 35 35 38 39 37 37 41 42 41 41 39 40 39 35 35 37 36 37 37 35 34 33 32 31 31 31 30 30 31 31 31 31 32 33 32 32 32 31 31 31 29 28 27 26 26 26 25 23 23 24 23 23 22 22 22 23 27 29 28 28 28 26 27 30 31 29 26 23 25 26 23 23 25 25 24 23 23 24 24 24 25 25
38 36 34 33 33 33 33 33 35 38 34 34 40 43 45 47 42 38 36 36 38 39 40 42 40 38 38 36 34 33 33 33 33 32 31 31 31 32 31 32 33 34 34 34 34 33 32 31 29 27 26 27 27 26 25 25 25 25 24 23 23 24 30 36 36 34 35 34 33 33 34 32 28 25 25 26 25 26 26 25 25 24 23 22 23 23 23 24
37 36 34 32 31 32 32 31 33 35 33 33 39 42 46 48 42 38 39 38 37 37 40 45 44 42 40 37 36 36 34 33 32 32 31 31 31 32 32 32 32 35 36 36 36 36 35 34 33 32 30 28 28 27 26 26 27 27 25 24 24 24 29 36 37 36 38 40 38 38 37 34 32 30 28 27 27 26 25 25 25 24 22 21 22 22 22 23
36 35 34 32 30 29 29 29 30 32 32 34 39 41 43 44 39 38 39 38 37 37 37 41 43 44 42 40 39 39 39 37 34 32 31 31 31 32 33 33 32 34 37 38 37 36 36 35 35 38 37 33 31 28 27 27 27 28 28 28 27 25 27 34 37 38 40 41 39 38 37 33 32 32 29 28 28 27 27 27 27 26 24 23 23 23 23 23
33 32 32 32 31 30 28 27 26 28 31 35 38 37 36 36 37 37 37 36 37 37 37 36 37 39 42 43 42 42 42 42 39 36 32 32 33 33 35 35 33 33 35 37 37 37 38 37 36 40 41 38 35 31 30 28 27 28 32 34 32 28 29 34 38 39 40 41 38 37 36 33 33 34 30 29 30 29 29 30 31 31 28 25 25 24 24 24
30 29 29 30 32 33 33 30 26 26 30 35 35 32 30 31 32 33 35 35 35 35 36 37 35 36 40 43 43 42 42 42 43 41 36 35 36 35 39 40 37 37 36 36 38 38 39 38 38 40 42 42 39 35 32 30 27 28 31 35 36 34 33 35 38 41 42 41 36 35 36 33 32 35 34 31 31 32 32 31 32 34 32 29 29 28 27 26
28 27 26 27 29 32 36 34 27 27 31 34 32 29 28 29 29 30 33 34 34 33 34 35 35 35 38 41 42 44 45 43 44 44 39 37 38 37 40 43 41 41 40 40 40 40 40 39 39 39 41 42 40 39 38 35 31 28 29 35 39 39 38 38 39 41 43 43 39 36 35 33 32 37 39 37 34 35 34 32 32 33 34 33 33 33 31 29
27 29 30 27 26 30 36 35 29 29 32 32 29 27 27 27 28 31 33 34 34 33 33 33 34 36 37 38 39 42 46 45 44 45 43 41 41 40 39 41 43 42 42 42 42 43 43 42 40 38 39 42 41 41 43 41 36 31 29 33 37 39 40 41 41 42 43 44 42 39 37 34 34 39 42 40 38 38 37 34 34 34 34 33 34 35 35 35
28 31 33 32 30 30 32 32 30 28 28 27 25 26 26 27 29 30 31 34 35 34 33 32 33 36 37 37 37 38 44 47 46 46 46 44 44 43 40 40 43 44 43 43 44 43 44 45 44 41 40 43 44 44 44 42 39 36 33 33 35 37 39 41 42 43 45 46 44 44 41 36 36 38 40 40 41 40 39 39 39 36 34 33 34 35 37 38
31 29 29 32 32 29 28 29 27 25 24 23 21 23 25 26 28 29 31 34 34 33 33 33 31 32 34 37 37 36 41 46 46 47 48 47 47 47 45 42 43 45 46 46 46 46 45 46 46 44 43 44 45 45 44 42 41 40 39 38 37 38 40 43 45 43 43 45 45 45 45 40 39 40 40 42 43 42 42 42 40 36 35 35 36 38 37 36
30 27 29 35 36 32 30 29 26 24 23 22 20 23 26 26 27 29 30 32 32 32 32 32 32 31 33 37 38 37 37 39 42 46 48 49 50 49 47 45 46 47 49 49 48 47 47 47 47 46 44 43 44 45 45 44 43 42 42 42 41 40 40 43 45 44 45 46 45 47 48 44 41 41 42 43 43 42 42 40 37 36 36 37 37 38 39 38
26 23 26 32 33 33 33 32 29 27 26 24 22 23 26 29 30 30 30 31 32 32 32 31 32 31 32 36 40 39 37 37 39 44 48 49 50 50 49 49 49 49 51 52 51 50 50 49 48 47 45 43 43 45 46 46 46 45 43 43 44 43 42 42 41 42 46 48 48 50 50 44 40 41 42 44 44 43 42 39 38 37 36 38 39 39 40 40
24 22 24 28 32 33 35 36 33 30 28 25 24 24 26 29 30 30 32 33 33 34 35 34 33 36 36 35 38 38 37 39 39 42 48 51 49 49 51 50 50 50 50 52 55 56 55 53 50 49 49 47 47 48 47 48 49 48 48 47 45 43 44 44 42 44 47 47 48 52 50 44 42 42 42 44 44 43 42 41 41 40 37 38 39 39 39 39
24 22 23 28 33 33 33 35 35 35 33 32 32 31 30 31 31 32 34 35 36 36 38 38 38 41 41 37 37 38 37 39 40 41 46 49 47 48 51 51 51 52 50 50 54 58 59 58 54 52 51 50 50 50 49 50 51 50 51 50 47 45 45 46 47 49 49 46 46 49 48 45 45 44 44 44 44 44 44 44 43 42 41 40 40 40 39 39
27 26 24 28 32 32 29 30 32 34 34 35 37 35 34 36 36 37 39 41 41 39 40 42 42 43 43 40 40 40 38 39 42 42 44 46 45 47 50 51 52 52 52 51 54 59 62 61 58 55 51 46 46 49 51 54 56 55 54 52 50 48 45 46 49 50 49 47 46 46 46 46 46 47 48 48 47 47 47 47 46 45 45 45 43 41 39 39
32 28 26 30 37 38 36 34 36 37 36 38 39 35 35 37 37 39 44 47 47 46 46 47 46 46 46 44 44 44 41 42 43 42 43 45 46 47 49 51 52 52 53 55 58 62 65 63 61 60 56 50 49 51 53 58 60 59 58 58 57 55 51 50 50 48 49 50 46 45 48 47 45 47 50 50 49 50 50 50 49 48 48 47 45 43 39 38
34 28 26 30 39 44 43 41 42 46 47 50 51 46 43 42 40 41 44 47 49 49 50 52 49 47 48 48 51 51 46 46 46 43 42 45 49 52 52 53 54 53 54 57 59 64 68 65 61 62 60 55 55 56 57 60 60 60 61 60 61 62 60 58 55 50 51 50 46 46 49 48 46 49 52 52 52 53 55 54 52 51 50 48 46 44 41 39
36 34 30 31 38 42 43 43 45 49 52 56 58 55 53 52 51 48 48 52 55 53 54 56 49 47 51 52 55 59 55 51 51 49 49 52 57 61 62 60 56 53 57 61 62 66 70 67 63 65 64 59 59 60 62 64 62 63 63 60 61 65 65 64 60 56 55 52 48 49 51 50 50 52 54 55 54 54 55 55 54 53 50 48 48 46 42 40
36 38 39 39 39 37 37 40 41 43 48 52 53 49 48 52 54 52 52 58 63 61 63 66 58 55 60 61 62 63 57 52 55 59 64 69 70 71 73 71 65 60 60 64 67 71 74 69 65 69 70 66 63 63 65 67 68 68 66 62 62 66 68 67 65 64 63 59 55 55 55 53 52 53 56 57 56 55 56 56 54 52 49 48 48 47 43 42
33 37 43 46 41 34 34 36 37 43 46 45 45 44 45 49 48 48 50 53 59 61 62 68 66 62 67 71 69 63 55 53 62 70 74 77 76 74 76 78 77 73 69 66 69 76 79 75 70 76 79 72 66 67 68 71 78 78 69 63 65 69 70 69 68 68 67 66 64 62 59 55 55 57 58 58 57 56 55 55 53 51 50 51 50 48 46 45
37 37 39 44 41 32 31 33 40 48 46 39 42 47 49 49 47 49 51 48 48 52 55 62 66 65 67 67 60 55 58 63 71 78 79 78 76 75 78 79 80 81 79 75 74 77 79 77 74 80 84 75 69 73 76 81 89 81 65 61 67 70 70 69 69 69 68 69 69 65 61 59 62 64 64 62 59 56 54 55 54 52 52 53 51 50 48 46